sat.trackr.live / text

‹ back to catalog

STARLINK-35545

NORAD 66109 · 2025-236Z

PAYLOAD ACTIVE UNKNOWN

§ Identity

Operator
Country
US
Launch date
2025-10-19
Launch site
AFWTR
Launch vehicle
Mass (kg)
RCS (m²)

Purposes: comms

External: N2YO · Heavens-Above · Gunter

§ Orbital elements

Epoch: 2026-09-20T05:13:27.997824Z

Period
93.85 min
Inclination
53.1586°
Eccentricity
0.0001843
Mean motion
15.34400246 rev/d
Perigee alt
461.4 km
Apogee alt
464.0 km
Semi-major
6,840.8 km
B*
3.6956e-4
RAAN
277.0503°
Arg perigee
90.1390°
Mean anomaly
269.9824°
Rev number
5,277

§ Raw data

STARLINK-355451 66109U 25236Z   26263.21768516  .00012130  00000+0  36956-3 0  99932 66109  53.1586 277.0503 0001843  90.1390 269.9824 15.34400246 52774

JSON: /api/v1/satellites/66109 · /tle

For live sub-satellite position, see the globe view (requires WebGL).

§ Visibility from observer

Set your observer location to see the next 7 days of passes ≥ 10°. The values pass through the URL so the page stays shareable.

No JS? Fill the form by hand. The geolocation button needs JavaScript.